Wind_Speed
11 11 12 12 13 13 14 14 15 15 16 16 16 17 17 17 18 19 18 19 20 20 21 21 21 21 22 22 23 23 24 24 25 26 26 27 26 27
13 13 13 13 13 13 14 15 16 15 16 16 17 18 18 18 18 20 19 19 20 21 21 22 22 23 24 25 24 25 25 26 27 27 27 28 28 28
13 14 14 14 14 14 15 15 16 16 17 17 18 19 20 19 19 20 21 20 21 22 23 24 24 25 26 26 27 27 27 27 28 28 29 30 30 30
15 14 14 14 14 14 15 16 16 16 17 18 19 20 20 21 21 21 22 24 25 25 25 26 26 27 28 28 29 29 29 29 30 30 31 32 32 33
16 16 15 15 14 15 16 17 17 18 18 18 20 21 22 22 23 23 24 25 25 26 28 28 28 29 30 30 31 31 31 32 32 32 33 34 35 35
15 16 16 16 16 17 18 18 19 20 20 20 21 22 22 23 24 25 25 26 27 28 29 30 31 31 31 31 32 33 34 34 35 35 35 36 37 37
16 16 17 17 18 19 20 20 21 21 22 22 22 23 23 24 25 26 26 27 28 29 30 31 32 33 33 33 33 34 35 35 36 36 37 37 37 38
17 18 18 19 20 20 21 22 23 23 23 23 24 24 25 26 27 28 28 29 30 31 31 32 33 33 34 34 34 35 36 36 37 38 38 39 39 39
19 20 20 20 21 22 22 23 23 23 24 24 25 26 27 27 28 29 29 30 31 32 33 33 34 35 36 35 36 37 37 37 38 39 40 41 41 42
20 21 21 21 22 22 23 24 24 24 25 26 26 27 27 28 29 30 31 32 32 33 34 34 35 37 38 38 38 38 39 39 40 41 42 42 42 43
21 21 22 23 23 24 25 25 25 26 26 27 28 28 29 30 31 31 32 32 33 35 35 36 36 37 38 38 38 39 40 41 41 42 43 43 44 44
22 22 23 24 24 25 26 26 27 27 28 29 30 30 31 31 32 33 34 35 36 36 37 38 38 39 40 40 40 41 41 42 43 43 43 44 44 44
22 23 24 25 26 27 28 28 29 29 30 30 31 32 33 33 33 35 36 37 38 39 39 40 40 41 41 41 42 42 43 44 44 44 44 45 45 45
24 24 25 26 28 29 29 29 30 31 32 32 33 33 34 35 36 37 37 38 39 40 40 41 41 42 43 43 43 43 44 44 45 45 45 46 46 46
25 25 27 28 29 30 31 32 33 33 34 34 34 35 35 36 37 38 38 39 39 40 40 41 42 42 43 43 43 43 44 45 45 45 46 46 46 46
27 27 28 29 31 32 33 33 34 34 34 35 36 36 37 38 38 38 39 39 40 41 41 42 42 42 42 42 43 43 43 44 44 45 45 45 46 46
28 28 29 30 31 32 33 33 34 35 35 36 36 37 38 38 39 39 40 41 41 41 42 42 43 42 42 42 42 42 43 43 42 42 42 43 43 43
29 30 30 31 32 33 33 34 34 35 35 36 37 37 38 38 39 40 41 42 42 42 42 42 42 41 41 41 41 40 40 40 40 40 40 40 40 40
30 31 31 32 32 33 34 34 35 36 36 36 37 37 38 39 40 40 41 41 41 41 41 40 40 39 39 38 39 39 38 38 38 38 38 38 38 38
31 32 32 32 33 34 34 35 35 36 36 36 37 38 39 39 40 40 41 40 40 39 39 38 38 37 37 37 37 36 37 37 36 36 36 37 37 36
32 32 32 33 33 34 34 35 35 35 36 37 37 38 39 39 40 40 40 39 38 37 36 36 36 36 36 35 35 35 35 35 35 35 35 34 34 33
32 32 32 33 34 34 34 35 35 36 37 37 38 38 39 39 39 39 39 37 36 35 35 35 36 36 35 34 33 33 33 34 34 34 34 33 33 32
31 32 32 33 34 35 35 36 36 37 37 38 38 39 39 39 38 37 37 37 36 35 35 34 34 34 34 33 33 33 33 33 32 32 32 32 31 31
Wind_Direction
290 288 289 292 290 289 288 288 288 286 285 283 281 279 279 277 282 280 277 274 275 275 274 274 273 274 275 275 275 273 273 273 272 272 271 270 270 269
287 285 285 288 290 291 290 290 291 288 285 285 284 282 281 280 281 281 282 280 277 275 274 274 274 275 274 273 274 273 274 274 273 272 271 271 269 269
286 286 286 287 289 292 292 293 292 290 288 287 286 285 283 281 281 281 280 280 278 278 279 278 276 276 276 274 274 274 275 275 274 272 271 271 270 270
285 285 287 287 289 291 293 294 294 292 291 290 289 288 286 283 283 282 281 281 279 279 280 280 280 279 279 278 277 276 275 275 275 274 272 271 271 270
285 285 285 286 287 292 294 294 295 294 293 292 292 291 288 285 285 284 283 283 283 282 282 281 281 281 280 279 277 276 275 274 275 275 273 272 271 269
289 288 287 291 290 294 295 295 295 293 292 292 291 291 289 286 285 286 285 285 284 285 284 281 280 280 280 278 277 277 277 275 275 275 274 273 271 269
291 292 292 293 292 293 295 295 295 293 291 290 290 290 289 289 288 286 286 285 285 285 284 283 282 281 278 279 278 278 277 277 276 275 275 274 274 272
296 296 297 297 296 295 296 295 294 293 292 291 290 290 290 289 288 287 286 286 285 286 286 284 282 282 281 280 279 278 277 277 276 275 275 276 275 275
299 299 298 298 296 297 297 297 296 296 295 294 292 291 290 290 290 288 287 287 286 287 286 284 284 284 282 280 279 278 277 277 277 277 276 276 276 275
297 297 298 298 297 296 296 298 299 297 296 294 294 292 291 291 291 290 288 287 286 287 287 286 285 284 283 281 280 280 278 277 277 277 277 276 276 276
297 298 298 297 299 300 300 299 299 299 298 297 296 294 293 292 291 290 289 288 288 288 288 287 285 285 284 283 282 280 279 278 277 277 278 277 276 277
299 299 300 301 302 302 301 301 301 301 300 299 298 296 295 294 292 292 292 291 290 290 290 289 287 286 285 284 283 281 281 281 280 280 279 278 277 277
299 299 300 302 303 302 302 302 302 301 301 299 297 297 296 295 294 294 293 293 291 291 291 289 287 286 285 284 283 281 281 281 281 281 281 280 279 277
299 300 301 302 302 302 303 303 303 302 301 299 297 297 298 298 297 296 295 294 293 292 291 289 288 287 286 285 285 283 282 282 282 281 281 280 279 279
301 301 301 301 301 302 302 302 303 302 302 300 299 299 299 299 298 297 296 296 295 294 292 291 289 287 286 286 286 285 283 282 282 282 281 280 278 278
301 302 302 303 303 303 304 304 304 303 302 302 302 302 301 300 299 299 298 297 297 296 295 293 292 290 290 288 287 286 285 285 284 283 282 281 280 279
303 303 303 304 305 305 305 305 305 305 305 305 303 302 301 301 301 301 300 299 298 297 296 295 294 294 294 293 291 289 287 287 286 285 284 283 282 281
304 305 305 305 305 305 306 307 307 306 306 305 305 304 304 303 302 302 302 302 301 300 299 298 297 296 295 295 293 292 291 291 290 289 287 286 284 283
304 305 305 305 306 307 308 308 308 307 307 307 307 306 306 305 304 304 304 304 303 302 302 301 299 298 297 296 295 294 293 293 293 291 290 288 287 286
304 305 307 307 308 309 309 308 308 309 308 308 308 308 308 307 307 306 306 305 305 304 303 303 302 301 300 298 297 296 295 294 294 292 291 291 290 289
306 306 306 307 308 309 310 310 310 310 310 310 310 309 309 309 309 309 308 307 306 305 305 304 303 303 302 301 300 299 298 297 296 294 293 293 292 291
306 306 307 308 309 310 311 311 311 311 311 311 311 311 311 310 310 310 310 309 307 307 306 305 305 305 304 302 301 300 300 299 298 297 296 295 294 293
308 308 309 309 310 310 311 312 312 313 313 312 312 312 312 311 311 311 311 310 309 308 307 306 306 306 305 303 302 302 301 300 299 297 297 297 297 296
Height
5887 5886 5885 5884 5883 5881 5880 5879 5878 5877 5875 5874 5873 5871 5870 5869 5867 5866 5864 5863 5863 5862 5861 5859 5858 5857 5856 5855 5854 5853 5852 5851 5850 5849 5848 5848 5847 5846
5884 5883 5882 5880 5879 5878 5876 5875 5873 5872 5871 5869 5868 5867 5865 5864 5863 5861 5859 5858 5857 5856 5854 5853 5852 5851 5850 5849 5848 5847 5846 5844 5843 5842 5841 5840 5840 5839
5880 5879 5877 5876 5875 5874 5872 5870 5869 5867 5866 5864 5863 5862 5860 5859 5858 5856 5854 5853 5851 5850 5849 5847 5845 5844 5843 5842 5841 5840 5838 5837 5835 5834 5833 5832 5831 5831
5876 5875 5873 5872 5871 5869 5868 5866 5865 5863 5862 5860 5858 5856 5855 5853 5852 5850 5849 5847 5845 5844 5842 5840 5839 5837 5836 5834 5833 5832 5830 5829 5827 5826 5824 5823 5823 5822
5871 5870 5869 5867 5866 5865 5863 5862 5860 5859 5857 5855 5853 5851 5849 5847 5846 5844 5842 5841 5838 5837 5835 5833 5831 5830 5828 5826 5825 5823 5822 5820 5819 5817 5815 5814 5813 5811
5867 5865 5863 5862 5861 5860 5859 5857 5855 5853 5852 5850 5848 5845 5843 5841 5839 5837 5835 5833 5831 5829 5827 5825 5823 5821 5820 5818 5816 5814 5813 5811 5809 5807 5805 5803 5802 5800
5862 5861 5859 5858 5857 5855 5853 5852 5850 5848 5846 5844 5842 5840 5837 5835 5833 5830 5828 5826 5823 5822 5819 5817 5814 5812 5810 5808 5806 5804 5803 5801 5799 5797 5795 5793 5791 5789
5858 5856 5855 5853 5852 5850 5848 5846 5844 5842 5840 5837 5835 5833 5830 5828 5825 5823 5821 5818 5815 5813 5810 5808 5805 5803 5800 5798 5796 5794 5791 5789 5787 5785 5783 5781 5779 5778
5854 5852 5850 5848 5846 5844 5842 5840 5837 5835 5833 5831 5828 5826 5823 5821 5818 5815 5812 5809 5807 5803 5801 5798 5795 5792 5790 5787 5785 5783 5780 5778 5776 5774 5772 5770 5768 5765
5849 5847 5845 5843 5840 5838 5836 5833 5831 5828 5826 5823 5821 5818 5815 5812 5809 5807 5804 5800 5797 5794 5791 5788 5785 5782 5779 5776 5774 5772 5769 5767 5764 5762 5759 5757 5755 5753
5844 5842 5840 5837 5835 5832 5829 5826 5824 5821 5818 5815 5812 5809 5806 5803 5800 5797 5794 5791 5788 5784 5781 5778 5775 5771 5768 5765 5762 5759 5757 5754 5751 5749 5746 5744 5742 5739
5838 5836 5834 5831 5828 5826 5823 5820 5817 5814 5811 5807 5804 5801 5797 5794 5791 5787 5784 5780 5777 5774 5770 5767 5763 5760 5757 5753 5750 5747 5744 5741 5738 5736 5733 5730 5728 5725
5832 5830 5827 5824 5822 5819 5816 5812 5809 5806 5802 5799 5795 5791 5788 5784 5781 5777 5773 5770 5766 5762 5758 5755 5751 5747 5744 5741 5737 5734 5731 5728 5725 5722 5719 5716 5713 5711
5826 5823 5820 5818 5815 5811 5808 5804 5801 5797 5793 5790 5786 5782 5778 5774 5770 5766 5762 5758 5754 5750 5746 5742 5738 5735 5731 5728 5724 5721 5717 5714 5711 5708 5705 5702 5699 5696
5819 5816 5813 5810 5807 5803 5799 5796 5792 5788 5784 5780 5776 5772 5768 5764 5759 5755 5751 5746 5742 5737 5733 5729 5725 5721 5718 5714 5710 5707 5704 5700 5697 5694 5690 5687 5685 5682
5812 5809 5806 5802 5798 5794 5790 5786 5782 5778 5774 5770 5766 5761 5757 5753 5748 5744 5739 5734 5730 5725 5721 5717 5712 5708 5704 5700 5697 5693 5690 5686 5683 5679 5676 5673 5670 5667
5805 5801 5797 5794 5790 5785 5781 5777 5773 5768 5764 5759 5755 5751 5746 5742 5737 5732 5727 5722 5718 5713 5709 5704 5699 5695 5691 5687 5683 5680 5676 5672 5669 5665 5662 5659 5656 5653
5797 5793 5789 5785 5781 5777 5772 5768 5763 5758 5754 5749 5745 5740 5735 5731 5726 5721 5716 5711 5706 5701 5696 5692 5687 5683 5679 5674 5671 5667 5663 5659 5655 5652 5648 5646 5643 5640
5789 5785 5781 5776 5772 5768 5763 5759 5754 5749 5744 5739 5735 5730 5725 5720 5715 5710 5705 5699 5694 5689 5685 5680 5675 5671 5667 5663 5659 5655 5651 5648 5644 5640 5637 5633 5631 5628
5781 5776 5772 5768 5763 5759 5754 5750 5745 5740 5735 5730 5725 5720 5715 5709 5704 5699 5693 5688 5683 5678 5673 5668 5664 5660 5656 5652 5648 5644 5640 5636 5632 5629 5625 5622 5619 5616
5772 5768 5764 5759 5755 5750 5745 5741 5736 5731 5726 5720 5715 5710 5704 5699 5694 5688 5683 5677 5672 5667 5663 5658 5653 5649 5645 5641 5637 5633 5629 5625 5621 5618 5615 5612 5608 5605
5764 5760 5755 5751 5746 5741 5736 5731 5726 5721 5716 5711 5705 5700 5694 5689 5683 5678 5672 5667 5662 5658 5653 5649 5644 5639 5635 5631 5627 5623 5619 5616 5611 5607 5603 5601 5597 5595
5756 5751 5747 5742 5737 5732 5727 5722 5717 5712 5706 5701 5695 5690 5684 5679 5673 5668 5662 5658 5653 5648 5643 5639 5634 5630 5625 5621 5617 5614 5610 5606 5602 5598 5594 5590 5587 5584